Content
SEND FEEDBACK

Daily
Averages
Monthly
Summary
United States of America

MANGILAO, GUAM


Home > North America > United States > Guam
Elevation: 18 meters     Latitude: 13 27N     Longitude: 144 49E

WEATHER
 
SELECT A DAY
Number of Records: 354,566;   Date Range: 1/1/95 - 11/24/14
 
SHARE

PRINT THIS DATA

[ ← Previous Day ]
WEATHER ALMANAC - 16 NOVEMBER, 2013
[ Next Day → ]
[ °F ]   °C
Weather ElementAverageHighLow
Temperature26.8 °C29 °C (11:58 am)25.3 °C (2:58 am)
Dewpoint23.4 °C25 °C (1:17 pm)20.2 °C (6:58 am)
Humidity81.5 %94 % (7:33 pm)69 % (8:58 am)
Barometer1010.2 hPa1011.5 hPa (11:13 pm)1008.5 hPa (1:58 pm)
Wind Speed20.1 km/h27.8 km/h (1:40 pm)
Weather ElementAverage
Visibility16.1 km
Wind DirectionNE (45.3 °)

Weather ElementTotal
Precipitation---
Cooling Degree Days8.8 (Base 18.3)
Growing Degree Days17.2 (Base 10)
Averaged from 38 records on 16 November, 2013
WEATHER CONDITIONS BREAKOUT
WIND DIRECTION BREAKOUT
WEATHER BY HOUR - 16 NOVEMBER, 2013
[ °F ]   °C
Local TimeTemperatureDewpointHumidityBarometerVisibilityWind DirectionWind SpeedGust SpeedPrecipitationEventsConditions
1:58 AM25.4 °C21.5 °C79 %1009.8 hPa16.1 kmENE (60°)20.4 km/hPartly Cloudy
2:58 AM25.3 °C21.8 °C81 %1009.5 hPa16.1 kmNE (50°)20.4 km/hPartly Cloudy
3:58 AM25.3 °C20.5 °C75 %1009.5 hPa16.1 kmENE (60°)20.4 km/hClear
4:58 AM25.5 °C21.4 °C78 %1009.5 hPa16.1 kmNE (40°)20.4 km/hScattered Clouds
5:58 AM25.3 °C20.7 °C76 %1009.8 hPa16.1 kmNE (50°)18.5 km/hScattered Clouds
6:58 AM25.3 °C20.2 °C73 %1010.2 hPa16.1 kmNE (50°)18.5 km/hClear
7:58 AM27.2 °C21.4 °C70 %1011.2 hPa16.1 kmNE (50°)20.4 km/hScattered Clouds
8:58 AM27.5 °C21.3 °C69 %1011.2 hPa16.1 kmNE (50°)20.4 km/hScattered Clouds
9:58 AM28.1 °C22.7 °C72 %1011.2 hPa16.1 kmENE (60°)16.7 km/hScattered Clouds
10:58 AM28.4 °C23 °C72 %1011.2 hPa16.1 kmNE (50°)22.2 km/hScattered Clouds
11:58 AM29 °C23.3 °C71 %1009.8 hPa16.1 kmNE (40°)20.4 km/hPartly Cloudy
12:53 PM29 °C23 °C70 %1010.2 hPa16.1 kmNE (40°)16.7 km/hMostly Cloudy
12:58 PM29 °C23.5 °C72 %1008.8 hPa16.1 kmNE (50°)22.2 km/hMostly Cloudy
1:17 PM29 °C25 °C79 %1009.8 hPa16.1 kmNNE (20°)24.1 km/hRainLight Rain
1:29 PM27 °C25 °C89 %1009.5 hPa16.1 kmNE (50°)24.1 km/hOvercast
1:30 PM27 °C25 °C89 %1009.5 hPa16.1 kmENE (60°)24.1 km/hOvercast
1:40 PM27 °C25 °C89 %1009.5 hPa16.1 kmENE (60°)27.8 km/hMostly Cloudy
1:58 PM27.8 °C24.2 °C81 %1008.5 hPa16.1 kmENE (60°)27.8 km/h0 mmMostly Cloudy
2:58 PM26.7 °C24.2 °C86 %1008.5 hPa16.1 kmEast (80°)20.4 km/hScattered Clouds
3:58 PM26.2 °C23.4 °C84 %1008.5 hPa16.1 kmENE (70°)18.5 km/hMostly Cloudy
4:58 PM27.1 °C23 °C78 %1008.5 hPa16.1 kmNE (40°)18.5 km/hMostly Cloudy
5:58 PM26.2 °C24.2 °C89 %1008.8 hPa16.1 kmNNE (30°)11.1 km/hClear
6:18 PM26 °C24 °C89 %1010.2 hPa16.1 kmNNE (30°)13 km/hMostly Cloudy
6:33 PM26 °C24 °C89 %1010.2 hPa16.1 kmNE (40°)16.7 km/hOvercast
6:36 PM26 °C24 °C89 %1010.2 hPa16.1 kmNNE (30°)16.7 km/hLight Drizzle
6:41 PM27 °C25 °C89 %1010.5 hPa16.1 kmNNE (30°)16.7 km/hLight Drizzle
6:45 PM27 °C25 °C89 %1010.5 hPa16.1 kmNNE (30°)14.8 km/hOvercast
6:55 PM27 °C25 °C89 %1010.8 hPa16.1 kmNNE (30°)16.7 km/hMostly Cloudy
6:58 PM27 °C25 °C89 %1009.8 hPa16.1 kmNE (40°)16.7 km/h0 mmMostly Cloudy
7:03 PM27 °C25 °C89 %1010.8 hPa16.1 kmNNE (30°)13 km/hMostly Cloudy
7:33 PM26 °C25 °C94 %1011.2 hPa16.1 kmENE (60°)16.7 km/hOvercast
7:58 PM26.2 °C24.7 °C91 %1010.2 hPa16.1 kmNE (40°)20.4 km/hMostly Cloudy
8:58 PM26.9 °C23.1 °C80 %1010.5 hPa16.1 kmNE (40°)24.1 km/hMostly Cloudy
9:58 PM26.8 °C23.1 °C80 %1011.2 hPa16.1 kmNE (40°)25.9 km/hOvercast
10:58 PM26.7 °C23 °C80 %1010.5 hPa16.1 kmNE (40°)22.2 km/hMostly Cloudy
11:13 PM27 °C23 °C79 %1011.5 hPa16.1 kmNE (40°)24.1 km/hMostly Cloudy
11:48 PM27 °C23 °C79 %1011.2 hPa16.1 kmNE (40°)22.2 km/hMostly Cloudy
11:58 PM26.5 °C23 °C81 %1010.2 hPa16.1 kmNE (40°)27.8 km/hMostly Cloudy
Hourly data recorded from PGUA, located 0 kilometers away from Mangilao, Guam







STORIES FROM OUR PARTNERS